Regional Weather Roundup
Issued by NWS

Home | Current Version | Previous Version | Text Only | Print | Product List | Glossary On
Versions: 1 2 3 4 5 6 7 8 9 10 11 12 13 14 15 16 17 18 19 20 21 22 23 24 25 26 27 28 29 30 31 32 33 34 35 36 37 38 39 40 41 42 43 44 45 46 47 48 49 50
000
ASUS43 KMKX 080411
RWRWI

WISCONSIN REGIONAL WEATHER ROUNDUP
NATIONAL WEATHER SERVICE MILWAUKEE/SULLIVAN WI
1000 PM CST SUN FEB 07 2016

NOTE: "FAIR" INDICATES FEW OR NO CLOUDS BELOW 12,000 FEET WITH NO
SIGNIFICANT WEATHER AND/OR OBSTRUCTIONS TO VISIBILITY.

WIZ001-002-006>008-014>016-023>028-080500-
NORTHWEST WISCONSIN

CITY           SKY/WX    TMP DP  RH WIND       PRES   REMARKS
SUPERIOR ARPT  LGT SNOW  23  18  79 NW14G20   29.67R WCI  11
ASHLAND        LGT SNOW  29  28  96 W12       29.56R FOG     WCI  19
HAYWARD        LGT SNOW  24  20  84 VRB7      29.61R FOG     WCI  16
SIREN          LGT SNOW  20  15  82 NW13G22   29.69R WCI   7
CUMBERLAND     FLURRIES  21  18  86 NW18G24   29.65R WCI   6
RICE LAKE      LGT SNOW  24  19  83 W12       29.66R WCI  13
CHETEK         LGT SNOW  24  22  91 NW9       29.64R WCI  15
LADYSMITH      LGT SNOW  28  25  89 W16       29.60R WCI  16
EAU CLAIRE     LGT SNOW  25  19  78 W13       29.65S WCI  14
MENOMONIE      LGT SNOW  26  21  83 W12G21    29.67S WCI  15
NEW RICHMOND   FLURRIES  20  15  80 NW14G22   29.71R WCI   7
OSCEOLA        CLOUDY    21  14  73 NW13G25   29.75R WCI   8
$$

WIZ003>005-009-010-017-018-080500-
NORTH CENTRAL WISCONSIN

CITY           SKY/WX    TMP DP  RH WIND       PRES   REMARKS
MANITOWISH WTR FLURRIES  30  30 100 NW7       29.50S WCI  23
ARBOR VITAE    LGT SNOW  32  30  94 SW3       29.50S
WOODRUFF       LGT SNOW  32  30  94 SW3       29.50S
RHINELANDER    LGT SNOW  31  29  92 SW6       29.51F FOG     WCI  25
EAGLE RIVER    CLOUDY    31  30  97 SW5       29.50S WCI  26
LAND O LAKES   LGT SNOW  32  31  97 SW3       29.50S
PHILLIPS       LGT SNOW  28  27  94 W12       29.53R WCI  18
TOMAHAWK       LGT RAIN  31  29  93 CALM      29.52F
MEDFORD        MIX PCPN  29  29  96 NW9       29.54R WCI  21
MERRILL        LGT SNOW  32  31  98 SW6       29.55S WCI  26
$$

WIZ029-030-035-036-043>047-080500-
CENTRAL WISCONSIN

CITY           SKY/WX    TMP DP  RH WIND       PRES   REMARKS
WAUSAU         LGT SNOW  35  28  75 W6        29.54S WCI  30
MOSINEE        CLOUDY    34  30  86 SW9       29.56F WCI  26
MARSHFIELD     CLOUDY    35  28  75 W10       29.55F WCI  27
STEVENS POINT  CLOUDY    33  26  75 SW7       29.58S WCI  27
WAUPACA        CLOUDY    38  27  66 SW7       29.59F WCI  32
WAUTOMA        CLOUDY    36  28  73 SW8       29.61F WCI  30
WISC RAPIDS    LGT RAIN  35  27  72 W12       29.60S WCI  27
CAMP DOUGLAS   CLOUDY    35  35 100 SW9       29.60F WCI  27
$$

WIZ011>013-019>022-031-037>040-048>050-080500-
NORTHEAST WISCONSIN

CITY           SKY/WX    TMP DP  RH WIND       PRES   REMARKS
ANTIGO         LGT SNOW  32  28  85 W6        29.54S WCI  26
SHAWANO        CLOUDY    38  28  66 SW3       29.58S
OCONTO         CLOUDY    37  29  74 SW3       29.58S
STURGEON BAY   CLOUDY    36  28  75 SW8       29.60F WCI  29
GREEN BAY      MOCLDY    35  28  75 SW8       29.59F WCI  29
MANITOWOC      PTCLDY    37  27  67 SW7       29.61F WCI  32
APPLETON       MOCLDY    34  25  69 S8        29.58S WCI  27
CLINTONVILLE   CLOUDY    36  28  75 SW8       29.58F WCI  29
OSHKOSH        CLOUDY    35  26  69 VRB3      29.60F
$$

WIZ032>034-041-042-053>061-080500-
SOUTHWEST WISCONSIN

CITY           SKY/WX    TMP DP  RH WIND       PRES   REMARKS
LA CROSSE      CLOUDY    34  25  69 NW17      29.65R WCI  23
SPARTA         CLOUDY    34  32  92 W6        29.63S WCI  29
VIROQUA        CLOUDY    33  33 100 W10G16    29.62S WCI  25
BOSCOBEL       CLOUDY    36  32  85 SW9       29.67F WCI  29
PRAIRIE DU CHI LGT RAIN  35  30  80 SW10      29.68S WCI  28
PLATTEVILLE    CLOUDY    33  31  90 W13       29.67F WCI  24
$$

WIZ056-057-062-063-064-067-068-080500-
SOUTH CENTRAL WISCONSIN

CITY           SKY/WX    TMP DP  RH WIND       PRES   REMARKS
REEDSBURG      CLOUDY    35  29  80 SW8       29.62F WCI  28
BARABOO/DELLS  CLOUDY    34  28  77 SW9       29.62S WCI  27
LONE ROCK      CLOUDY    36  29  75 W8        29.65F WCI  30
MINERAL POINT  FLURRIES  34  32  93 SW9       29.65F WCI  26
MADISON        CLOUDY    34  27  75 SW8       29.65F WCI  27
MIDDLETON      CLOUDY    35  29  78 W7G16     29.65F WCI  29
WATERTOWN      PTCLDY    32  30  94 SW8       29.64F WCI  24
MONROE         MOCLDY    32  30  93 SW13      29.66F WCI  22
JANESVILLE     CLEAR     34  30  86 SW8       29.67F WCI  27
$$

WIZ051-052-058>065-066-070>072-080500-
SOUTHEAST WISCONSIN

CITY           SKY/WX    TMP DP  RH WIND       PRES   REMARKS
MILWAUKEE      PTCLDY    35  27  72 W9        29.66F WCI  28
WAUKESHA       CLEAR     32  27  80 SW10      29.65F WCI  24
MILWAUKEE/TIMM CLEAR     34  27  75 W10G16    29.66S WCI  26
RACINE         CLEAR     35  27  72 W10       29.68F WCI  27
BURLINGTON     CLEAR     32  27  81 SW10      29.67F WCI  23
KENOSHA        CLEAR     34  27  75 W12       29.68F WCI  25
FOND DU LAC    MOCLDY    32  25  75 SW7       29.61F WCI  26
SHEBOYGAN      PTCLDY    32  25  75 SW6       29.62F WCI  26
WEST BEND      CLEAR     32  27  80 SW8       29.63F WCI  25
JUNEAU         CLOUDY    33  28  80 SW12      29.64F WCI  24
$$

LSZ147-162-080500-
LAKE SUPERIOR

STATION/POSITION TIME  TEMP    WIND        PRES    WAVE
                       AIR SEA DIR/SP/G            HT/PER
                 (UTC) (F)     (DEG/KT/KT) (MB)    (FT/S)
DEVILS ISLAND    0400   27      30/ 26/ 30 1002.7R
PORT WING        0300   30     330/ 16/ 19 1002.7R
SAXON HARBOR     0300   32                 1000.3R
$$

LMZ867-665-643>646-080500-
LAKE MICHIGAN

STATION/POSITION TIME  TEMP    WIND        PRES    WAVE
                       AIR SEA DIR/SP/G            HT/PER
                 (UTC) (F)     (DEG/KT/KT) (MB)    (FT/S)
CHAMBERS ISLAND  0300   36     180/  5/  8 1002.4S
NORTHPORT PIER   0300   36      CALM  /  3 1002.0F
KEWAUNEE LAKESHO 0300   37     250/  6/ 12 1002.0F
SHEBOYGAN LAKESH 0400   35     230/  7/  8 1003.8F
PORT WASHINGTON  0340   35     250/  4/  8 1004.7F
MILWAUKEE LAKESH 0310   37     270/  9/ 12   N/A
KENOSHA   LAKESH 0400   36     260/ 11/ 16 1005.4S
$$

TC  - TEMPERATURE IN CELSIUS
VSB - VISIBILITY IN STATUTE MILES
WCI - WIND CHILL INDEX
HX  - HEAT INDEX





USA.gov is the U.S. government's official web portal to all federal, state and local government web resources and services.